Wind_Speed
6 5 4 3 1 1 3 4 6 8 11 14 15 14 14 13 11 10 9 10 7 9 8 9 7 3 3 7 11 8 8 10 12 10 13 11 8 8 11 7 7 7 6 3 1
6 5 4 3 2 1 2 3 5 7 8 9 11 14 15 14 13 10 11 11 10 9 10 11 9 2 3 9 7 5 12 22 14 6 8 11 10 13 11 6 8 6 12 5 2
7 5 4 4 3 2 2 2 3 5 7 8 9 9 11 13 12 12 14 11 11 10 10 13 8 6 7 13 5 10 19 18 9 7 20 13 11 10 8 4 5 11 3 3 4
8 7 6 5 4 4 3 2 1 3 5 7 8 8 7 7 7 14 15 13 13 11 10 8 5 1 10 8 4 14 12 12 9 4 17 17 14 9 8 4 6 7 1 6 9
8 7 6 5 5 5 4 4 3 2 2 4 6 6 6 7 8 10 15 16 15 13 10 8 6 4 2 6 8 8 6 7 0 4 8 19 20 14 7 5 4 4 4 7 9
7 6 5 5 4 4 5 4 4 3 3 2 3 5 6 8 14 8 11 17 17 17 13 10 5 5 3 4 9 8 6 7 2 4 7 8 8 11 12 7 3 4 7 11 14
8 7 5 5 4 3 4 4 5 5 4 3 1 2 6 9 9 5 9 12 17 19 14 11 4 6 5 2 9 12 7 3 4 7 12 3 11 8 7 2 2 3 5 8 13
9 9 8 6 5 4 3 3 4 5 5 5 6 4 6 5 1 4 7 10 19 23 17 11 3 1 4 3 8 10 1 1 3 8 14 16 9 13 11 6 5 7 7 5 9
10 9 9 8 6 4 3 1 2 3 4 7 8 10 6 5 2 4 10 16 20 21 18 14 8 8 7 10 9 4 5 5 2 13 16 16 13 18 9 14 11 11 9 8 6
11 10 9 8 7 5 4 3 2 3 2 3 6 8 6 4 3 10 12 19 18 19 18 17 13 13 13 13 9 10 14 8 4 6 18 18 16 16 21 20 19 17 14 11 7
12 11 11 9 7 6 5 5 4 5 5 7 4 10 8 5 1 4 6 19 21 19 18 14 19 19 13 9 12 16 3 6 5 8 11 12 12 18 22 25 25 25 22 17 8
13 12 12 10 7 5 5 8 10 9 2 6 9 11 11 8 7 4 7 15 19 18 19 18 23 13 10 12 13 14 3 9 10 9 11 11 15 15 19 22 30 30 21 17 14
14 12 12 11 8 7 8 15 11 8 11 5 5 13 6 6 3 4 3 9 13 16 20 20 11 9 10 14 12 12 12 11 11 7 11 14 20 19 17 19 26 29 23 19 14
15 12 10 11 9 9 12 15 12 7 8 1 7 10 12 9 6 7 4 11 16 16 12 10 7 12 16 14 14 12 8 12 13 7 6 11 8 13 14 18 26 30 28 23 18
16 11 11 9 9 11 10 13 10 4 3 6 6 9 13 9 9 5 9 11 14 14 9 10 9 9 11 8 14 13 9 9 10 13 12 16 8 8 8 18 18 23 23 22 21
16 11 11 7 10 14 13 10 7 3 4 7 11 8 16 11 9 2 14 13 10 14 13 14 12 15 11 12 13 16 13 7 14 7 8 24 17 11 8 9 13 14 14 18 14
16 14 10 8 11 14 16 12 5 5 3 2 12 9 7 12 12 10 14 16 15 14 17 14 19 21 17 17 18 18 17 3 0 2 8 9 14 17 16 12 5 10 8 11 13
14 12 10 8 6 13 19 14 8 2 3 4 14 13 12 13 13 13 15 16 16 18 8 8 6 22 19 23 18 12 18 11 6 4 3 6 9 7 4 5 3 8 8 9 13
12 10 7 4 6 13 20 18 7 7 2 7 7 14 20 15 15 17 18 18 14 18 12 8 7 4 14 23 22 14 14 11 11 10 2 5 10 10 9 9 4 5 4 5 12
8 7 3 1 5 11 17 21 15 10 4 7 4 2 5 6 11 17 23 17 22 20 18 9 10 6 10 9 19 15 10 7 6 3 4 4 6 8 13 14 7 7 9 8 10
5 3 3 1 3 6 14 16 17 16 16 14 10 10 5 3 5 7 18 20 19 24 19 25 18 14 11 15 17 20 19 15 8 5 6 2 7 9 17 11 9 10 8 11 9
3 5 4 0 2 2 2 4 6 6 4 13 17 8 9 6 8 6 8 13 10 6 12 19 21 20 21 16 18 21 14 13 8 6 5 4 8 10 9 20 18 18 15 14 9
5 8 7 5 5 3 4 6 6 5 2 3 7 11 10 14 9 9 7 6 9 6 5 16 16 16 7 11 16 12 13 10 8 9 9 6 6 10 14 15 21 19 18 18 15
5 8 11 10 13 12 10 5 8 8 7 8 5 10 12 10 12 8 12 12 9 7 8 11 12 19 18 14 12 11 17 12 11 10 8 11 9 16 14 10 12 17 15 16 13
8 12 15 11 18 16 13 12 15 14 9 9 7 10 7 10 11 13 16 17 12 10 10 11 15 11 16 15 10 10 10 13 14 14 12 9 12 14 12 11 14 12 8 15 18
11 13 15 19 18 17 20 19 19 17 13 8 8 8 14 11 11 9 13 14 13 8 12 10 8 8 16 14 14 14 10 13 12 13 10 7 11 10 14 16 18 15 16 17 19
14 16 18 20 22 22 23 24 24 25 15 15 13 13 11 12 10 8 11 12 10 13 9 6 10 10 15 13 10 11 18 18 16 10 18 17 16 15 17 19 21 21 19 17 17
Wind_Direction
59 57 55 56 68 198 219 219 220 223 226 227 229 229 226 224 215 204 193 197 169 167 162 148 137 104 30 344 319 335 315 327 332 315 176 157 171 174 189 239 280 325 290 7 90
58 53 45 34 19 350 270 239 234 232 232 231 228 228 227 227 219 202 208 199 186 171 170 168 165 161 319 335 315 312 303 327 319 297 193 174 167 176 180 229 352 323 284 266 196
47 50 43 30 21 9 327 288 249 239 233 232 233 230 226 226 217 203 209 199 187 180 176 180 205 247 340 333 295 299 315 328 320 270 201 192 180 201 181 197 316 11 319 198 178
31 33 35 38 34 28 19 1 293 263 248 237 228 224 222 211 200 204 204 199 194 182 181 192 199 165 332 335 270 309 316 331 319 241 192 205 189 201 193 193 318 18 7 119 111
20 19 21 27 31 32 27 19 4 318 275 251 235 220 206 187 178 184 199 202 196 183 185 182 142 20 356 26 318 322 339 339 320 191 191 194 195 211 216 192 323 19 110 100 63
6 5 2 6 13 19 22 20 11 6 346 297 247 213 186 179 187 158 177 205 198 184 189 173 131 8 35 348 357 359 317 12 144 189 199 152 162 178 163 194 19 51 87 52 40
353 345 344 339 342 357 13 19 17 18 17 22 31 178 168 173 167 219 216 203 196 181 189 175 133 31 41 289 326 332 274 10 123 160 163 135 165 224 204 194 129 4 12 16 22
336 338 333 328 323 326 351 13 28 42 56 70 87 117 171 192 181 317 181 184 176 176 183 179 150 75 14 292 316 333 53 346 175 186 197 189 237 194 207 237 241 241 273 303 11
319 320 323 325 313 308 303 302 52 46 101 119 110 101 93 50 41 327 173 157 168 176 181 189 191 236 233 252 285 241 271 336 245 188 199 207 225 202 217 223 257 255 251 259 305
308 306 304 311 313 295 269 243 267 322 226 137 164 133 129 141 91 47 166 169 172 182 186 194 208 232 232 243 260 301 264 253 266 211 202 215 215 223 224 218 232 253 253 248 266
303 297 293 291 296 292 264 233 253 284 284 251 224 163 154 147 103 72 126 179 181 189 192 199 216 218 221 266 276 304 224 220 231 237 235 232 240 228 226 236 229 243 247 242 243
312 301 289 282 279 279 245 229 251 285 297 268 218 194 166 159 154 142 168 179 182 184 189 199 215 199 253 278 278 266 253 196 232 225 249 261 257 234 236 243 229 241 244 238 244
314 307 298 284 265 250 217 227 246 295 317 282 210 204 186 182 150 129 208 182 189 178 179 195 175 214 277 272 247 247 212 163 89 221 227 259 275 253 244 235 219 227 238 248 223
318 315 296 285 254 241 226 238 249 290 312 113 149 172 190 158 169 179 194 154 172 163 181 229 213 260 278 266 226 237 254 232 247 231 247 256 271 268 253 231 222 223 235 238 244
318 326 298 271 243 225 224 231 240 268 334 148 167 158 177 148 149 146 182 184 176 177 197 202 258 292 282 232 244 248 290 294 267 228 257 263 248 287 269 235 236 237 236 239 247
314 324 306 275 234 225 209 211 237 243 263 166 175 180 174 165 162 217 194 205 222 234 246 254 265 272 260 258 279 269 286 237 217 219 254 262 227 293 320 325 254 241 234 224 222
312 313 306 283 233 214 204 195 199 225 152 209 211 200 200 181 192 220 206 208 215 227 243 244 248 259 258 248 264 263 246 177 318 197 226 285 210 271 310 310 308 217 226 204 204
316 317 307 282 244 209 201 192 215 220 94 31 217 214 208 204 213 231 231 227 230 224 220 231 254 237 242 241 239 230 235 231 201 203 252 196 232 265 274 193 256 228 231 219 213
315 324 321 290 207 197 200 198 211 183 109 37 139 220 229 234 244 242 246 252 244 199 206 218 255 275 275 244 237 233 221 251 254 275 208 230 264 270 220 187 117 196 181 201 212
311 321 8 61 185 198 201 213 217 203 216 317 347 120 326 245 259 239 242 263 247 241 232 242 265 316 345 207 227 237 233 224 233 150 240 239 266 234 212 190 163 161 173 168 179
292 243 192 109 132 208 227 234 244 238 276 283 260 280 313 324 244 279 234 252 280 267 250 246 242 263 303 229 210 218 232 234 255 239 165 180 249 256 217 214 205 205 191 172 187
257 208 208 106 113 221 221 251 237 222 236 261 254 259 287 259 271 259 213 217 292 303 264 250 248 251 260 251 240 238 240 232 231 226 209 220 250 240 223 206 200 218 205 207 195
263 226 211 227 210 262 240 241 284 285 316 312 261 242 267 277 282 242 252 251 292 268 271 246 219 217 223 217 245 204 209 218 228 244 209 178 237 227 207 205 213 209 211 206 212
240 216 234 229 239 263 278 261 259 239 264 249 280 266 252 257 254 256 258 266 273 266 265 237 257 220 236 243 217 207 206 217 245 257 258 235 241 206 215 210 201 211 213 210 254
261 237 238 230 238 249 271 271 273 270 245 273 255 262 266 256 253 254 264 262 272 274 248 236 235 260 240 203 199 212 234 248 287 255 233 261 236 234 234 241 227 251 263 237 257
278 254 244 244 253 250 251 261 268 264 278 277 258 311 292 291 257 258 256 254 261 249 254 228 218 242 208 203 215 226 233 245 259 246 257 243 223 223 237 229 234 248 248 254 257
286 268 261 254 254 257 259 259 259 263 261 258 275 267 273 271 247 239 255 247 230 242 246 241 204 213 231 225 226 224 242 250 253 245 257 243 239 232 221 226 236 240 247 257 264
Height
3151 3151 3150 3150 3150 3149 3149 3149 3150 3150 3151 3153 3154 3156 3158 3159 3162 3164 3166 3168 3169 3171 3171 3171 3171 3171 3170 3170 3168 3166 3166 3164 3164 3162 3162 3163 3163 3164 3165 3167 3166 3165 3164 3163 3164
3152 3151 3151 3150 3150 3149 3149 3149 3149 3149 3150 3150 3152 3153 3155 3157 3160 3163 3165 3166 3168 3170 3171 3171 3172 3172 3172 3171 3169 3166 3166 3164 3162 3162 3163 3163 3163 3164 3165 3166 3166 3166 3163 3163 3164
3152 3151 3151 3150 3149 3148 3148 3148 3148 3148 3148 3149 3150 3151 3153 3155 3159 3161 3162 3164 3167 3169 3170 3172 3172 3173 3172 3170 3168 3167 3165 3163 3161 3160 3162 3163 3164 3164 3165 3166 3168 3166 3164 3164 3165
3153 3152 3151 3150 3149 3148 3148 3148 3147 3147 3147 3147 3148 3150 3151 3154 3158 3157 3160 3163 3165 3167 3170 3171 3172 3172 3171 3169 3168 3166 3163 3162 3160 3159 3160 3163 3164 3164 3165 3168 3168 3166 3166 3166 3167
3153 3152 3151 3150 3149 3148 3148 3147 3146 3146 3146 3146 3147 3148 3150 3153 3154 3155 3158 3161 3164 3167 3168 3170 3171 3171 3170 3168 3167 3164 3162 3161 3160 3160 3161 3160 3162 3165 3166 3167 3168 3167 3167 3168 3168
3154 3152 3151 3150 3149 3148 3148 3147 3146 3145 3145 3145 3145 3147 3149 3152 3153 3155 3156 3158 3162 3165 3167 3170 3170 3170 3168 3168 3167 3165 3163 3161 3160 3160 3162 3163 3164 3165 3165 3167 3167 3167 3168 3169 3168
3154 3152 3151 3150 3149 3148 3148 3147 3146 3145 3145 3144 3145 3146 3148 3151 3152 3154 3155 3157 3159 3164 3167 3168 3169 3169 3167 3167 3166 3164 3164 3163 3161 3161 3163 3163 3165 3165 3166 3166 3166 3167 3167 3168 3168
3153 3152 3151 3150 3149 3148 3148 3147 3146 3145 3145 3145 3145 3146 3147 3149 3152 3152 3152 3154 3157 3162 3165 3167 3168 3167 3166 3167 3165 3163 3163 3163 3163 3162 3163 3164 3164 3164 3164 3164 3166 3167 3167 3167 3168
3152 3150 3149 3149 3148 3147 3147 3146 3146 3146 3145 3145 3146 3146 3148 3149 3151 3150 3151 3153 3157 3161 3164 3165 3167 3167 3166 3165 3166 3163 3162 3162 3162 3161 3163 3164 3164 3164 3165 3165 3163 3165 3165 3166 3167
3150 3148 3147 3147 3146 3146 3146 3145 3145 3145 3145 3146 3146 3149 3149 3150 3150 3150 3150 3153 3156 3160 3163 3165 3166 3164 3164 3165 3165 3163 3162 3162 3162 3162 3161 3163 3163 3164 3164 3165 3164 3163 3164 3165 3166
3147 3146 3145 3145 3144 3144 3144 3144 3147 3146 3143 3144 3145 3145 3147 3149 3149 3149 3150 3152 3154 3158 3161 3163 3163 3160 3163 3164 3164 3163 3160 3162 3161 3161 3162 3162 3162 3161 3162 3162 3163 3160 3162 3162 3165
3144 3144 3142 3142 3143 3142 3143 3142 3141 3143 3142 3141 3142 3143 3145 3146 3147 3148 3150 3152 3153 3156 3159 3162 3158 3160 3163 3163 3162 3163 3163 3160 3159 3159 3161 3159 3158 3158 3158 3157 3159 3159 3160 3161 3163
3142 3141 3140 3140 3140 3141 3140 3138 3139 3141 3140 3140 3140 3141 3144 3146 3147 3147 3149 3150 3152 3154 3157 3159 3159 3161 3161 3161 3162 3161 3161 3159 3159 3158 3157 3158 3155 3153 3153 3153 3154 3155 3158 3159 3161
3138 3138 3137 3136 3139 3138 3138 3138 3139 3141 3141 3141 3140 3142 3143 3145 3146 3147 3149 3151 3151 3155 3157 3158 3159 3159 3158 3158 3161 3160 3159 3160 3160 3160 3158 3157 3153 3149 3148 3149 3150 3151 3152 3156 3159
3136 3135 3133 3133 3134 3135 3138 3137 3139 3142 3142 3142 3141 3141 3143 3145 3146 3147 3149 3150 3152 3153 3156 3156 3155 3156 3155 3155 3158 3157 3158 3159 3158 3159 3160 3155 3156 3145 3145 3146 3146 3147 3150 3152 3156
3134 3133 3131 3131 3131 3133 3135 3137 3140 3144 3139 3140 3140 3141 3142 3143 3144 3146 3147 3150 3151 3152 3153 3153 3154 3153 3153 3155 3155 3157 3160 3159 3159 3159 3159 3151 3155 3143 3144 3145 3144 3145 3148 3151 3155
3131 3130 3128 3128 3129 3130 3133 3137 3141 3139 3140 3140 3139 3139 3141 3142 3143 3144 3145 3146 3148 3150 3150 3151 3150 3149 3151 3152 3153 3154 3157 3158 3160 3160 3156 3149 3152 3143 3143 3141 3142 3143 3147 3150 3152
3129 3127 3125 3125 3126 3129 3132 3137 3137 3135 3136 3136 3136 3138 3139 3141 3142 3142 3143 3143 3145 3146 3148 3148 3147 3145 3146 3146 3149 3151 3153 3154 3157 3158 3151 3150 3148 3143 3142 3143 3142 3144 3145 3148 3152
3126 3124 3123 3123 3124 3127 3131 3133 3132 3134 3135 3134 3135 3136 3138 3139 3141 3141 3141 3140 3142 3142 3145 3144 3143 3143 3142 3143 3146 3148 3149 3150 3150 3149 3150 3147 3143 3141 3142 3144 3145 3145 3145 3147 3151
3124 3123 3122 3122 3123 3126 3129 3130 3131 3132 3133 3133 3134 3135 3135 3136 3138 3136 3138 3135 3138 3141 3141 3142 3141 3140 3139 3140 3143 3145 3148 3148 3147 3149 3149 3144 3142 3140 3142 3144 3146 3147 3148 3149 3150
3122 3122 3122 3122 3123 3125 3126 3127 3128 3131 3131 3131 3130 3131 3132 3133 3134 3133 3133 3134 3135 3136 3138 3139 3141 3139 3139 3139 3139 3142 3143 3144 3144 3144 3144 3146 3141 3139 3141 3143 3146 3148 3148 3150 3152
3120 3121 3121 3121 3123 3122 3123 3124 3125 3127 3128 3127 3128 3129 3129 3130 3130 3130 3130 3131 3131 3131 3131 3134 3135 3136 3136 3136 3137 3139 3140 3140 3141 3142 3141 3139 3139 3138 3139 3141 3144 3147 3148 3148 3150
3119 3119 3120 3120 3120 3120 3120 3121 3122 3124 3125 3125 3125 3126 3127 3127 3128 3127 3126 3127 3129 3128 3128 3128 3129 3132 3133 3135 3134 3135 3135 3136 3137 3137 3136 3138 3135 3136 3137 3138 3141 3143 3145 3147 3148
3119 3119 3118 3118 3118 3118 3118 3119 3119 3120 3121 3121 3121 3121 3120 3122 3123 3123 3123 3123 3123 3124 3124 3125 3126 3127 3128 3129 3130 3131 3132 3133 3134 3134 3134 3133 3131 3132 3134 3136 3137 3140 3141 3142 3143
3116 3116 3116 3116 3116 3116 3116 3116 3114 3115 3118 3118 3117 3116 3116 3116 3116 3117 3118 3120 3121 3121 3121 3120 3121 3123 3124 3125 3126 3127 3129 3130 3130 3130 3130 3130 3129 3129 3131 3132 3134 3136 3136 3137 3139
3112 3113 3113 3113 3112 3114 3113 3112 3111 3113 3115 3113 3112 3112 3112 3111 3111 3111 3112 3114 3117 3118 3117 3117 3117 3119 3122 3121 3122 3123 3126 3127 3128 3128 3128 3128 3127 3128 3129 3131 3133 3133 3135 3137 3137
3107 3107 3107 3107 3107 3109 3107 3107 3108 3108 3112 3108 3108 3109 3108 3108 3108 3108 3109 3111 3112 3114 3114 3115 3113 3116 3118 3119 3119 3120 3121 3123 3124 3124 3124 3125 3127 3127 3128 3129 3130 3132 3134 3135 3135